Simultaneous Nadir Overpasses (SNOs) Predictions

Prediction of SNOs between METOP-A and TERRA Satellite Orbit:

Table of predicted SNOs for the next 14.0 days since TLE Epoch: 1/2/2016
Index Date (METOP-A) Time (METOP-A) Lat,Lon (METOP-A) SZA (METOP-A ) Date (TERRA) Time (TERRA) Lat,Lon (TERRA) SZA (TERRA ) Distance(km) Time Diff (sec)
1 01/02/2016 11:30:46 -81.29,-125.80 73.29 01/02/2016 11:31:43 -81.28,-125.99 73.29 3.17 57
2 01/02/2016 12:21:26 81.29, 41.84 106.75 01/02/2016 12:21:09 81.29, 41.75 106.73 1.54 17
3 01/05/2016 07:05:09 -81.28, -59.63 73.62 01/05/2016 07:05:59 -81.28, -59.70 73.62 1.54 50
4 01/05/2016 07:55:48 81.29, 108.41 106.46 01/05/2016 07:55:24 81.30, 108.40 106.45 0.83 24
5 01/08/2016 02:39:32 -81.29, 6.90 73.97 01/08/2016 02:40:15 -81.28, 6.89 73.96 0.30 43
6 01/0
